Time,TemperatureF,DewpointF,PressureIn,WindDirection,WindDirectionDegrees,WindSpeedMPH,WindSpeedGustMPH,Humidity,HourlyPrecipIn,Conditions,Clouds,dailyrainin,SoftwareType,DateUTC
2013-11-05 00:07:00,69.8,64.0,30.11,ENE,73,2.0,8.0,83,0.00,,,0.00,weatherlink.com 1.10,2013-11-05 05:07:00,
2013-11-05 00:22:00,69.6,65.0,30.10,NE,40,5.0,14.0,84,0.00,,,0.00,weatherlink.com 1.10,2013-11-05 05:22:00,
2013-11-05 00:37:00,69.4,65.0,30.10,ENE,65,3.0,8.0,85,0.00,,,0.00,weatherlink.com 1.10,2013-11-05 05:37:00,
2013-11-05 00:52:00,69.4,65.0,30.11,ESE,104,3.0,6.0,85,0.00,,,0.00,weatherlink.com 1.10,2013-11-05 05:52:00,
2013-11-05 01:07:00,69.4,65.0,30.11,East,101,3.0,9.0,86,0.00,,,0.00,weatherlink.com 1.10,2013-11-05 06:07:00,
2013-11-05 01:22:00,69.3,65.0,30.11,ENE,59,3.0,4.0,86,0.00,,,0.00,weatherlink.com 1.10,2013-11-05 06:22:00,
2013-11-05 01:37:00,69.2,65.0,30.10,ENE,58,2.0,5.0,86,0.00,,,0.00,weatherlink.com 1.10,2013-11-05 06:37:00,
2013-11-05 01:52:00,68.8,65.0,30.10,WNW,288,1.0,6.0,87,0.00,,,0.00,weatherlink.com 1.10,2013-11-05 06:52:00,
2013-11-05 02:07:00,68.6,65.0,30.08,East,83,2.0,3.0,88,0.00,,,0.00,weatherlink.com 1.10,2013-11-05 07:07:00,
2013-11-05 02:22:00,68.3,65.0,30.08,ENE,64,0.0,5.0,88,0.00,,,0.00,weatherlink.com 1.10,2013-11-05 07:22:00,
2013-11-05 02:37:00,67.9,65.0,30.08,ENE,74,1.0,4.0,89,0.00,,,0.00,weatherlink.com 1.10,2013-11-05 07:37:00,
2013-11-05 02:52:00,67.5,65.0,30.08,East,83,1.0,3.0,90,0.00,,,0.00,weatherlink.com 1.10,2013-11-05 07:52:00,
2013-11-05 03:07:00,67.3,64.0,30.08,East,84,1.0,3.0,90,0.00,,,0.00,weatherlink.com 1.10,2013-11-05 08:07:00,
2013-11-05 03:22:00,67.0,64.0,30.08,ENE,77,3.0,3.0,91,0.00,,,0.00,weatherlink.com 1.10,2013-11-05 08:22:00,
2013-11-05 03:37:00,67.0,64.0,30.08,ENE,68,1.0,5.0,91,0.00,,,0.00,weatherlink.com 1.10,2013-11-05 08:37:00,
2013-11-05 03:52:00,67.0,64.0,30.08,NNE,32,0.0,6.0,91,0.00,,,0.00,weatherlink.com 1.10,2013-11-05 08:52:00,
2013-11-05 04:07:00,66.9,65.0,30.09,ENE,65,0.0,3.0,92,0.00,,,0.00,weatherlink.com 1.10,2013-11-05 09:07:00,
2013-11-05 04:22:00,66.8,65.0,30.08,ENE,66,1.0,3.0,92,0.00,,,0.00,weatherlink.com 1.10,2013-11-05 09:22:00,
2013-11-05 04:37:00,66.6,64.0,30.08,WNW,282,0.0,3.0,92,0.00,,,0.00,weatherlink.com 1.10,2013-11-05 09:37:00,
2013-11-05 04:52:00,66.4,64.0,30.09,NE,53,0.0,2.0,93,0.00,,,0.00,weatherlink.com 1.10,2013-11-05 09:52:00,
2013-11-05 05:07:00,66.4,64.0,30.09,ESE,105,1.0,5.0,93,0.00,,,0.00,weatherlink.com 1.10,2013-11-05 10:07:00,
2013-11-05 05:22:00,66.3,64.0,30.08,East,85,1.0,2.0,92,0.00,,,0.00,weatherlink.com 1.10,2013-11-05 10:22:00,
2013-11-05 05:37:00,66.3,64.0,30.09,East,96,2.0,2.0,92,0.00,,,0.00,weatherlink.com 1.10,2013-11-05 10:37:00,
2013-11-05 05:52:00,66.4,64.0,30.09,NE,47,0.0,3.0,92,0.00,,,0.00,weatherlink.com 1.10,2013-11-05 10:52:00,
2013-11-05 06:07:00,66.3,64.0,30.10,East,82,0.0,2.0,92,0.00,,,0.00,weatherlink.com 1.10,2013-11-05 11:07:00,
2013-11-05 06:22:00,66.3,64.0,30.10,ENE,66,0.0,1.0,92,0.00,,,0.00,weatherlink.com 1.10,2013-11-05 11:22:00,
2013-11-05 06:37:00,66.3,64.0,30.10,WSW,242,0.0,1.0,93,0.00,,,0.00,weatherlink.com 1.10,2013-11-05 11:37:00,
2013-11-05 06:52:00,66.3,64.0,30.10,East,98,0.0,1.0,93,0.00,,,0.00,weatherlink.com 1.10,2013-11-05 11:52:00,
2013-11-05 07:07:00,66.4,64.0,30.10,SW,235,0.0,2.0,93,0.00,,,0.00,weatherlink.com 1.10,2013-11-05 12:07:00,
2013-11-05 07:22:00,66.7,65.0,30.10,North,358,0.0,3.0,93,0.00,,,0.00,weatherlink.com 1.10,2013-11-05 12:22:00,
2013-11-05 07:37:00,67.7,65.0,30.11,ENE,58,1.0,5.0,92,0.00,,,0.00,weatherlink.com 1.10,2013-11-05 12:37:00,
2013-11-05 07:52:00,69.2,66.0,30.11,WSW,243,0.0,2.0,90,0.00,,,0.00,weatherlink.com 1.10,2013-11-05 12:52:00,
2013-11-05 08:08:00,70.3,67.0,30.12,NE,51,0.0,8.0,88,0.00,,,0.00,weatherlink.com 1.10,2013-11-05 13:08:00,
2013-11-05 08:23:00,71.2,67.0,30.12,ENE,70,1.0,7.0,86,0.00,,,0.00,weatherlink.com 1.10,2013-11-05 13:23:00,
2013-11-05 08:38:00,71.4,67.0,30.12,East,86,1.0,9.0,86,0.00,,,0.00,weatherlink.com 1.10,2013-11-05 13:38:00,
2013-11-05 08:53:00,72.9,68.0,30.12,NE,52,2.0,5.0,84,0.00,,,0.00,weatherlink.com 1.10,2013-11-05 13:53:00,
2013-11-05 09:08:00,73.8,68.0,30.13,ESE,110,1.0,3.0,83,0.00,,,0.00,weatherlink.com 1.10,2013-11-05 14:08:00,
2013-11-05 09:23:00,75.3,69.0,30.12,NW,307,1.0,3.0,81,0.00,,,0.00,weatherlink.com 1.10,2013-11-05 14:23:00,
2013-11-05 09:38:00,77.1,70.0,30.12,East,82,1.0,4.0,79,0.00,,,0.00,weatherlink.com 1.10,2013-11-05 14:38:00,
2013-11-05 09:53:00,76.8,69.0,30.12,East,79,5.0,9.0,77,0.00,,,0.00,weatherlink.com 1.10,2013-11-05 14:53:00,
2013-11-05 10:08:00,77.7,70.0,30.12,ESE,102,3.0,4.0,77,0.00,,,0.00,weatherlink.com 1.10,2013-11-05 15:08:00,
2013-11-05 10:23:00,78.6,70.0,30.12,East,82,2.0,6.0,76,0.00,,,0.00,weatherlink.com 1.10,2013-11-05 15:23:00,
2013-11-05 10:38:00,78.8,70.0,30.12,ENE,78,5.0,12.0,74,0.00,,,0.00,weatherlink.com 1.10,2013-11-05 15:38:00,
2013-11-05 10:53:00,80.2,70.0,30.12,NE,41,2.0,13.0,72,0.00,,,0.00,weatherlink.com 1.10,2013-11-05 15:53:00,
2013-11-05 11:08:00,80.0,70.0,30.11,East,94,3.0,13.0,72,0.00,,,0.00,weatherlink.com 1.10,2013-11-05 16:08:00,
2013-11-05 11:23:00,79.5,70.0,30.11,NE,53,4.0,10.0,72,0.00,,,0.00,weatherlink.com 1.10,2013-11-05 16:23:00,
2013-11-05 11:38:00,80.1,70.0,30.10,ENE,75,4.0,7.0,72,0.00,,,0.00,weatherlink.com 1.10,2013-11-05 16:38:00,
2013-11-05 11:53:00,81.1,70.0,30.09,East,99,4.0,10.0,69,0.00,,,0.00,weatherlink.com 1.10,2013-11-05 16:53:00,
2013-11-05 12:08:00,81.9,70.0,30.08,ESE,113,4.0,9.0,68,0.00,,,0.00,weatherlink.com 1.10,2013-11-05 17:08:00,
2013-11-05 12:23:00,81.9,71.0,30.07,East,83,4.0,9.0,69,0.00,,,0.00,weatherlink.com 1.10,2013-11-05 17:23:00,
2013-11-05 12:38:00,82.5,70.0,30.07,ENE,57,2.0,11.0,66,0.00,,,0.00,weatherlink.com 1.10,2013-11-05 17:38:00,
2013-11-05 12:53:00,83.5,71.0,30.06,East,86,6.0,9.0,65,0.00,,,0.00,weatherlink.com 1.10,2013-11-05 17:53:00,
2013-11-05 13:08:00,82.2,70.0,30.06,East,79,5.0,15.0,66,0.00,,,0.00,weatherlink.com 1.10,2013-11-05 18:08:00,
2013-11-05 13:23:00,82.1,70.0,30.06,East,79,5.0,10.0,66,0.00,,,0.00,weatherlink.com 1.10,2013-11-05 18:23:00,
2013-11-05 13:38:00,81.6,70.0,30.05,East,85,1.0,12.0,67,0.00,,,0.00,weatherlink.com 1.10,2013-11-05 18:38:00,
2013-11-05 13:53:00,82.0,70.0,30.05,East,84,2.0,11.0,66,0.00,,,0.00,weatherlink.com 1.10,2013-11-05 18:53:00,
2013-11-05 14:08:00,83.6,69.0,30.04,ENE,67,6.0,8.0,62,0.00,,,0.00,weatherlink.com 1.10,2013-11-05 19:08:00,
2013-11-05 14:23:00,83.2,70.0,30.04,East,99,1.0,10.0,64,0.00,,,0.00,weatherlink.com 1.10,2013-11-05 19:23:00,
2013-11-05 14:39:00,82.8,70.0,30.04,ESE,115,0.0,10.0,65,0.00,,,0.00,weatherlink.com 1.10,2013-11-05 19:39:00,
2013-11-05 14:54:00,82.9,70.0,30.04,ESE,105,3.0,9.0,65,0.00,,,0.00,weatherlink.com 1.10,2013-11-05 19:54:00,
2013-11-05 15:09:00,81.5,69.0,30.04,East,92,2.0,13.0,66,0.00,,,0.00,weatherlink.com 1.10,2013-11-05 20:09:00,
2013-11-05 15:24:00,81.0,70.0,30.04,ENE,61,1.0,6.0,69,0.00,,,0.00,weatherlink.com 1.10,2013-11-05 20:24:00,
2013-11-05 15:39:00,81.0,70.0,30.04,East,83,6.0,11.0,70,0.00,,,0.00,weatherlink.com 1.10,2013-11-05 20:39:00,
2013-11-05 15:54:00,82.1,70.0,30.04,ESE,102,15.0,17.0,66,0.00,,,0.00,weatherlink.com 1.10,2013-11-05 20:54:00,
2013-11-05 16:09:00,81.5,70.0,30.04,ENE,78,6.0,12.0,67,0.00,,,0.00,weatherlink.com 1.10,2013-11-05 21:09:00,
2013-11-05 16:24:00,81.2,70.0,30.04,ESE,108,1.0,12.0,68,0.00,,,0.00,weatherlink.com 1.10,2013-11-05 21:24:00,
2013-11-05 16:39:00,81.3,70.0,30.04,East,94,3.0,10.0,68,0.00,,,0.00,weatherlink.com 1.10,2013-11-05 21:39:00,
2013-11-05 16:54:00,81.0,70.0,30.04,ENE,72,1.0,5.0,69,0.00,,,0.00,weatherlink.com 1.10,2013-11-05 21:54:00,
2013-11-05 17:09:00,79.6,69.0,30.05,East,84,4.0,10.0,69,0.00,,,0.00,weatherlink.com 1.10,2013-11-05 22:09:00,
2013-11-05 17:24:00,79.0,69.0,30.05,SE,129,2.0,7.0,71,0.00,,,0.00,weatherlink.com 1.10,2013-11-05 22:24:00,
2013-11-05 17:39:00,78.6,69.0,30.05,ESE,117,3.0,6.0,72,0.00,,,0.00,weatherlink.com 1.10,2013-11-05 22:39:00,
2013-11-05 17:54:00,78.1,69.0,30.06,ESE,112,1.0,5.0,74,0.00,,,0.00,weatherlink.com 1.10,2013-11-05 22:54:00,
2013-11-05 18:09:00,77.5,69.0,30.06,East,99,1.0,4.0,74,0.00,,,0.00,weatherlink.com 1.10,2013-11-05 23:09:00,
2013-11-05 18:24:00,77.2,68.0,30.06,East,86,0.0,2.0,74,0.00,,,0.00,weatherlink.com 1.10,2013-11-05 23:24:00,
2013-11-05 18:39:00,76.9,68.0,30.06,NNE,14,1.0,2.0,75,0.00,,,0.00,weatherlink.com 1.10,2013-11-05 23:39:00,
2013-11-05 18:54:00,76.9,68.0,30.06,NE,51,0.0,3.0,75,0.00,,,0.00,weatherlink.com 1.10,2013-11-05 23:54:00,
2013-11-05 19:09:00,76.8,69.0,30.06,ENE,65,0.0,2.0,76,0.00,,,0.00,weatherlink.com 1.10,2013-11-06 00:09:00,
2013-11-05 19:24:00,76.6,69.0,30.07,East,80,2.0,3.0,76,0.00,,,0.00,weatherlink.com 1.10,2013-11-06 00:24:00,
2013-11-05 19:39:00,76.5,68.0,30.07,East,84,1.0,6.0,76,0.00,,,0.00,weatherlink.com 1.10,2013-11-06 00:39:00,
2013-11-05 19:54:00,76.2,69.0,30.08,SE,125,1.0,5.0,77,0.00,,,0.00,weatherlink.com 1.10,2013-11-06 00:54:00,
2013-11-05 20:09:00,76.0,69.0,30.08,ENE,76,2.0,5.0,78,0.00,,,0.00,weatherlink.com 1.10,2013-11-06 01:09:00,
2013-11-05 20:24:00,75.7,69.0,30.08,SE,132,1.0,9.0,79,0.00,,,0.00,weatherlink.com 1.10,2013-11-06 01:24:00,
2013-11-05 20:39:00,75.3,69.0,30.09,East,80,4.0,8.0,80,0.00,,,0.00,weatherlink.com 1.10,2013-11-06 01:39:00,
2013-11-05 20:54:00,75.1,69.0,30.09,ESE,108,2.0,11.0,81,0.00,,,0.00,weatherlink.com 1.10,2013-11-06 01:54:00,
2013-11-05 21:09:00,74.8,69.0,30.09,ESE,115,1.0,7.0,82,0.00,,,0.00,weatherlink.com 1.10,2013-11-06 02:09:00,
2013-11-05 21:24:00,74.5,69.0,30.10,ENE,64,2.0,9.0,83,0.00,,,0.00,weatherlink.com 1.10,2013-11-06 02:24:00,
2013-11-05 21:39:00,74.0,69.0,30.10,East,96,1.0,10.0,85,0.00,,,0.00,weatherlink.com 1.10,2013-11-06 02:39:00,
2013-11-05 21:54:00,73.7,69.0,30.11,East,87,2.0,10.0,85,0.00,,,0.00,weatherlink.com 1.10,2013-11-06 02:54:00,
2013-11-05 22:09:00,73.5,69.0,30.11,ESE,108,6.0,12.0,85,0.00,,,0.00,weatherlink.com 1.10,2013-11-06 03:09:00,
2013-11-05 22:24:00,72.9,69.0,30.11,East,82,5.0,12.0,87,0.00,,,0.00,weatherlink.com 1.10,2013-11-06 03:24:00,
2013-11-05 22:39:00,72.2,69.0,30.11,SE,129,3.0,8.0,90,0.00,,,0.00,weatherlink.com 1.10,2013-11-06 03:39:00,
2013-11-05 22:54:00,71.9,70.0,30.11,ENE,77,5.0,9.0,92,0.00,,,0.00,weatherlink.com 1.10,2013-11-06 03:54:00,
2013-11-05 23:09:00,71.7,70.0,30.11,ESE,108,2.0,5.0,93,0.00,,,0.00,weatherlink.com 1.10,2013-11-06 04:09:00,
2013-11-05 23:24:00,70.9,69.0,30.10,ESE,113,3.0,7.0,94,0.00,,,0.00,weatherlink.com 1.10,2013-11-06 04:24:00,
2013-11-05 23:39:00,70.7,69.0,30.09,East,79,1.0,3.0,94,0.00,,,0.00,weatherlink.com 1.10,2013-11-06 04:39:00,
2013-11-05 23:54:00,70.9,70.0,30.09,ENE,64,2.0,10.0,95,0.00,,,0.00,weatherlink.com 1.10,2013-11-06 04:54:00,